星链-33879 (STARLINK-33879)

导读

STARLINK-33879是美国于北京时间2025年4月25日发射的星链系列卫星,隶属于SpaceX公司的星链星座项目。该项目旨在构建全球卫星互联网通信网络,为全球偏远地区、海洋空域等场景提供高速宽带接入服务,持续推进低轨卫星星座的组网布局。

Basic Information
目录编号:
63634
目录名称:
STARLINK-33879
国际标识:
2025-083A
轨道中心:
EARTH
卫星名称:
星链-33879
卫星全名:
星链-33879 (STARLINK-33879)
卫星状态:
在轨 (已飞行504 天)
发射日期:
2025-04-25 UTC
国别 :
美国 (US)
星等 :
--
This satellite is enrolled in the Space Conjunction Data Service (SCDS) and the current flight risk assessment level is: No High Risk
Orbit Information
数据来源 国际轨道数据
星历时间: 2026-09-09T18:20:20+0800
2天前
查看轨道信息
半长轴: 6861.165km
偏心率: 0.0002728
轨道倾角: 43.006°
近地点辐角 269.688°
升交点赤经 47.882°
平近点角 90.366°
近地点: 481.156km
远地点: 484.9km
周期: 94.266分钟
每日圈数: 15.275872
Detailed Information
固有亮度:
5
最大亮度:
2.5
卫星平台:
Starlink V1.0
覆盖范围:
全球
运营商:
太空探索技术公司
运营商所在国:
美国
制造商(研发单位):
太空探索技术公司
制造商所在国:
美国
使用方式:
暂无
Satellite Introduction
Starlink 计划是 SpaceX 推出的全球卫星互联网项目,通过发射低轨道卫星,为全球尤其是偏远地区提供高速、低延迟的互联网服务。自 2019 年起,Starlink 已部署数千颗卫星,旨在缩小全球数字鸿沟,推动互联网普及。该项目还为军事、航空等行业提供通信支持,带来广泛经济效益。
2D Orbit Map
3D Orbit Map
Orbit Altitude Analysis Chart
Orbit Inclination Analysis Chart
Orbit Comprehensive Analysis Chart
View Comprehensive Chart
Conjunction Data List
Event ID Objects TCA Miss Dist (km) Collision Risk Probability Collision Risk Index (CRI) Action
CDM_260913-200105-708806-363421
2026-09-13T
20:01:27+0000
0.423 km
远距离
1.995895E-4 高风险 0.81
CDM_260913-002005-599806-363421
2026-09-13T
00:20:27+0000
0.763 km
远距离
3.028451E-5 中风险 0.65
CDM_260913-012006-214506-363421
2026-09-13T
01:20:53+0000
0.940 km
远距离
2.568942E-5 中风险 0.63
CDM_260913-085105-837106-363421
2026-09-13T
08:51:30+0000
0.646 km
远距离
2.412937E-5 中风险 0.63
CDM_260912-154406-363406-386021
2026-09-12T
15:44:39+0000
1.031 km
极远距离
1.318132E-5 中风险 0.57
CDM_260913-091205-879306-363421
2026-09-13T
09:12:48+0000
1.175 km
极远距离
1.193322E-5 中风险 0.57
CDM_260912-063006-162506-363421
2026-09-12T
06:30:27+0000
1.183 km
极远距离
1.151111E-5 中风险 0.56
CDM_260912-051705-536106-363421
2026-09-12T
05:17:26+0000
1.119 km
极远距离
1.0266E-5 中风险 0.55
CDM_260912-181606-162506-363421
2026-09-12T
18:16:36+0000
1.310 km
极远距离
8.086153E-6 低风险 0.53
CDM_260913-080405-837106-363421
2026-09-13T
08:04:26+0000
0.901 km
远距离
7.995085E-6 低风险 0.53
Miss Distance Evolution Trend with All Objects
Collision Probability Evolution Trend with All Objects